TimeEDT,TemperatureF,Dew PointF,Humidity,Sea Level PressureIn,VisibilityMPH,Wind Direction,Wind SpeedMPH,Gust SpeedMPH,PrecipitationIn,Events,Conditions,WindDirDegrees,DateUTC
12:53 AM,52.0,46.9,83,29.75,10.0,SSE,9.2,-,N/A,,Overcast,160,2013-10-20 04:53:00
1:53 AM,52.0,46.9,83,29.74,10.0,SSE,5.8,-,N/A,,Overcast,160,2013-10-20 05:53:00
2:53 AM,53.1,48.0,83,29.71,10.0,SSE,9.2,-,N/A,,Overcast,150,2013-10-20 06:53:00
3:53 AM,53.1,48.0,83,29.70,10.0,South,9.2,-,N/A,,Overcast,170,2013-10-20 07:53:00
4:53 AM,52.0,48.9,89,29.68,10.0,SSE,8.1,-,0.00,Rain,Light Rain,160,2013-10-20 08:53:00
5:53 AM,52.0,48.9,89,29.67,10.0,South,4.6,-,0.01,,Overcast,170,2013-10-20 09:53:00
6:53 AM,52.0,48.9,89,29.65,10.0,SE,6.9,-,0.00,,Overcast,140,2013-10-20 10:53:00
7:53 AM,53.1,50.0,89,29.66,10.0,South,4.6,-,N/A,,Overcast,190,2013-10-20 11:53:00
8:15 AM,53.6,50.0,88,29.67,9.0,SSW,4.6,-,N/A,,Overcast,200,2013-10-20 12:15:00
8:53 AM,53.1,50.0,89,29.67,9.0,SSW,3.5,-,N/A,,Overcast,210,2013-10-20 12:53:00
9:26 AM,55.4,51.8,88,29.67,10.0,SSW,4.6,-,N/A,,Overcast,210,2013-10-20 13:26:00
9:53 AM,55.9,48.0,75,29.67,10.0,WSW,10.4,-,N/A,,Mostly Cloudy,250,2013-10-20 13:53:00
10:18 AM,55.4,46.4,72,29.68,10.0,West,11.5,16.1,N/A,,Mostly Cloudy,270,2013-10-20 14:18:00
10:53 AM,57.9,45.0,62,29.67,10.0,WNW,10.4,16.1,N/A,,Mostly Cloudy,300,2013-10-20 14:53:00
11:53 AM,59.0,42.1,53,29.68,10.0,West,12.7,20.7,N/A,,Mostly Cloudy,270,2013-10-20 15:53:00
12:53 PM,59.0,37.0,44,29.68,10.0,West,11.5,20.7,N/A,,Mostly Cloudy,270,2013-10-20 16:53:00
1:53 PM,61.0,32.0,34,29.69,10.0,West,13.8,24.2,N/A,,Scattered Clouds,280,2013-10-20 17:53:00
2:53 PM,61.0,28.0,29,29.70,10.0,WNW,16.1,24.2,N/A,,Partly Cloudy,290,2013-10-20 18:53:00
3:53 PM,60.1,26.1,27,29.72,10.0,West,10.4,21.9,N/A,,Partly Cloudy,280,2013-10-20 19:53:00
4:53 PM,57.9,25.0,28,29.74,10.0,West,11.5,23.0,N/A,,Partly Cloudy,270,2013-10-20 20:53:00
5:53 PM,55.0,26.1,33,29.77,10.0,West,4.6,-,N/A,,Partly Cloudy,260,2013-10-20 21:53:00
6:53 PM,53.1,27.0,37,29.80,10.0,West,6.9,-,N/A,,Clear,260,2013-10-20 22:53:00
7:53 PM,51.1,26.1,38,29.83,10.0,West,5.8,-,N/A,,Clear,270,2013-10-20 23:53:00
8:53 PM,50.0,26.1,39,29.86,10.0,West,3.5,-,N/A,,Clear,270,2013-10-21 00:53:00
9:53 PM,48.9,27.0,43,29.88,10.0,West,4.6,-,N/A,,Clear,280,2013-10-21 01:53:00
10:53 PM,43.0,30.0,60,29.90,10.0,Calm,Calm,-,N/A,,Clear,0,2013-10-21 02:53:00
11:53 PM,46.0,28.9,51,29.91,10.0,Calm,Calm,-,N/A,,Clear,0,2013-10-21 03:53:00